Regional Weather Roundup
Issued by NWS Albany, NY

Home | Current Version | Previous Version | Text Only | Print | Product List | Glossary On
Versions: 1 2 3 4 5 6 7 8 9 10 11 12 13 14 15 16 17 18 19 20 21 22 23 24 25 26 27
000
ASUS41 KALY 281110
RWRALY

NEW YORK STATE HOURLY WEATHER ROUNDUP
NATIONAL WEATHER SERVICE ALBANY NY
700 AM EDT SUN MAY 28 2017

NOTE: "FAIR" INDICATES FEW OR NO CLOUDS BELOW 12,000 FEET WITH NO
SIGNIFICANT WEATHER AND/OR NO OBSTRUCTIONS TO VISIBILITY.

NYZ032-033-038>043-046>054-057>066-NYZ062>081-082-084-281200-
EAST


CITY           SKY/WX    TMP DP  RH WIND       PRES   REMARKS
ALBANY         CLOUDY    62  56  80 CALM      29.94R
GLENS FALLS    NOT AVBL
POUGHKEEPSIE   CLOUDY    61  56  83 CALM      29.92R
NEWBURGH       PTSUNNY   61  59  94 VRB6      29.93S
MONTGOMERY     CLOUDY    60  58  92 CALM      29.92R
WHITE PLAINS   FOG       57  56  96 E5        29.93R VSB 1/4
ISLIP          MOSUNNY   60  57  89 S6        29.93R
NEW YORK CITY  CLOUDY    59  57  93 E5        29.92R FOG
CENTRAL PARK   CLOUDY    59  57  93 E5        29.95R FOG
$$

NYZ005>009-017-018-044>046-055-056-281200-
CENTRAL


CITY           SKY/WX    TMP DP  RH WIND       PRES   REMARKS
FULTON         CLOUDY    53  52  96 SE5       29.92R
SYRACUSE       PTSUNNY   53  53 100 CALM      29.92R
ROME           MOSUNNY   54  54 100 SE6       29.94S
ELMIRA         CLOUDY    57  53  86 CALM      29.89F
BINGHAMTON     CLOUDY    56  54  93 CALM      29.93R
MONTICELLO     CLOUDY    55  55 100 CALM      29.95S
$$

NYZ026>034-041>043-087-281200-
NORTH


CITY           SKY/WX    TMP DP  RH WIND       PRES   REMARKS
WATERTOWN      CLOUDY    52  51  97 CALM      29.91S
FORT DRUM      NOT AVBL
OGDENSBURG     FAIR      53  52  97 CALM      29.92R
MASSENA        MOSUNNY   56  52  86 SW6       29.93R
SARANAC LAKE   FOG       45  45 100 CALM      29.95R VSB 1/2
PLATTSBURGH    SUNNY     50  48  93 SE3       29.93R
$$

NYZ001>004-010>016-019>021-085-281200-
WEST


CITY           SKY/WX    TMP DP  RH WIND       PRES   REMARKS
NIAGARA FALLS  CLOUDY    55  52  89 CALM      29.87F FOG
BUFFALO        CLOUDY    54  51  90 CALM      29.87S
DUNKIRK        CLOUDY    51  51 100 S5        29.85S
JAMESTOWN      PTSUNNY   54  48  82 CALM      29.87R
WELLSVILLE     CLOUDY    56  53  90 VRB6      29.91S FOG
ROCHESTER      PTSUNNY   53  51  93 CALM      29.90S
PENN YAN       CLOUDY    54  52  93 CALM      29.90F FOG
$$

             KEY
       WCI = WIND CHILL INDEX
       VSB = VISIBILITY
       HX  = HEAT INDEX
$$




USA.gov is the U.S. government's official web portal to all federal, state and local government web resources and services.